Tel Aviv, Israel

11:33 PM IST on November 17, 2018 (GMT +0200)
Ben Gurion

Weather History for LLBG - November, 2018

Change the Weather History Date:

Thursday, November 8, 2018

  Actual Average Record
Temperature  
Mean Temperature 68 °F -  
Max Temperature 77 °F 72 °F 86 °F (2002)
Min Temperature 58 °F 54 °F 54 °F (2016)
Cooling Degree Days 2    
Growing Degree Days 18 (Base 50)    
Moisture  
Dew Point 56 °F    
Average Humidity 64    
Maximum Humidity 88    
Minimum Humidity 33    
Precipitation  
Precipitation 0.00 in - - ()
Sea Level Pressure  
Sea Level Pressure 29.99 in    
Wind  
Wind Speed 4 mph ()    
Max Wind Speed 13 mph    
Max Gust Speed -    
Visibility 6.0 miles    
Events      
Averages and records for this station are not official NWS values.
T = Trace of Precipitation, MM = Missing Value Source: Averaged Metar Reports

Daily Weather History Graph

Daily Weather History Graph

Search for Another Location

Airport or City:

Astronomy

Nov. 08, 2018 Rise Set
Actual Time 6:02 AM IST 4:45 PM IST
Civil Twilight 5:37 AM IST 5:10 PM IST
Nautical Twilight 5:07 AM IST 5:39 PM IST
Astronomical Twilight 4:39 AM IST 6:08 PM IST
Moon 6:30 AM IST (11/8) 5:36 PM IST (11/8)
Length of Visible Light 11h 33m
Length of Day
10h 42m
New Moon, 1% of the Moon is Illuminated
Nov 8
New Moon
Nov 15
First Quarter
Nov 23
Full
Nov 30
Last Quarter
Dec 7
New

Hourly Weather History & Observations

Time (IST) Temp. Dew Point Humidity Pressure Visibility Wind Dir Wind Speed Gust Speed Precip Events Conditions
12:20 AM 62.6 °F 57.2 °F 82% 30.01 in - Variable 2.3 mph - N/A   Clear
12:50 AM 62.6 °F 57.2 °F 82% 30.01 in - SE 4.6 mph - N/A   Clear
1:20 AM 60.8 °F 55.4 °F 82% 30.01 in - Variable 2.3 mph - N/A   Clear
1:50 AM 60.8 °F 55.4 °F 82% 30.01 in - Variable 2.3 mph - N/A   Clear
2:00 AM 62 °F 55 °F 73% 30.01 in 6 mi ESE 4.5 mph - -  
2:50 AM 60.8 °F 55.4 °F 82% 30.01 in 5.6 mi Variable 2.3 mph - N/A   Unknown
3:50 AM 59.0 °F 55.4 °F 88% 30.01 in 5.6 mi Variable 3.5 mph - N/A   Unknown
4:20 AM 60.8 °F 53.6 °F 77% 30.01 in 5.6 mi Variable 2.3 mph - N/A   Unknown
5:20 AM 59.0 °F 53.6 °F 82% 30.01 in 5.6 mi Variable 2.3 mph - N/A   Unknown
5:50 AM 59.0 °F 53.6 °F 82% 30.01 in 5.6 mi Variable 2.3 mph - N/A   Unknown
6:20 AM 59.0 °F 53.6 °F 82% 30.01 in 5.0 mi Variable 1.2 mph - N/A   Unknown
6:50 AM 60.8 °F 53.6 °F 77% 30.01 in 5.6 mi Variable 2.3 mph - N/A   Unknown
7:20 AM 62.6 °F 53.6 °F 72% 30.01 in - Variable 2.3 mph - N/A   Clear
7:50 AM 64.4 °F 55.4 °F 73% 30.01 in - Variable 2.3 mph - N/A   Clear
8:00 AM 64 °F 54 °F 62% 30.03 in 6 mi ENE 2.2 mph - -   Clear
8:20 AM 66.2 °F 55.4 °F 68% 30.04 in - Variable 2.3 mph - N/A   Clear
8:50 AM 68.0 °F 53.6 °F 60% 30.04 in - Variable 2.3 mph - N/A   Clear
9:20 AM 71.6 °F 55.4 °F 57% 30.04 in - Variable 2.3 mph - N/A   Clear
9:50 AM 73.4 °F 53.6 °F 50% 30.01 in - Variable 2.3 mph - N/A   Clear
10:20 AM 75.2 °F 51.8 °F 44% 30.01 in - Variable 1.2 mph - N/A   Clear
10:50 AM 75.2 °F 53.6 °F 47% 30.01 in - Variable 2.3 mph - N/A   Clear
11:00 AM 76 °F 53 °F 33% 30.01 in 6 mi NW 2.2 mph - -   Scattered Clouds
11:20 AM 77.0 °F 51.8 °F 41% 30.01 in 6.2 mi Variable 2.3 mph - N/A   Partly Cloudy
11:50 AM 77.0 °F 53.6 °F 44% 29.98 in 6.2 mi West 5.8 mph - N/A   Partly Cloudy
12:20 PM 77.0 °F 57.2 °F 50% 29.98 in 6.2 mi West 12.7 mph - N/A   Partly Cloudy
12:50 PM 77.0 °F 57.2 °F 50% 29.98 in 6.2 mi West 10.4 mph - N/A   Partly Cloudy
1:20 PM 77.0 °F 55.4 °F 47% 29.95 in 6.2 mi West 10.4 mph - N/A   Partly Cloudy
1:50 PM 77.0 °F 53.6 °F 44% 29.95 in 6.2 mi WNW 10.4 mph - N/A   Partly Cloudy
2:20 PM 77.0 °F 55.4 °F 47% 29.95 in 6.2 mi NW 9.2 mph - N/A   Partly Cloudy
2:50 PM 77.0 °F 55.4 °F 47% 29.95 in 6.2 mi NW 10.4 mph - N/A   Partly Cloudy
3:20 PM 75.2 °F 55.4 °F 50% 29.95 in 6.2 mi NW 11.5 mph - N/A   Partly Cloudy
3:50 PM 75.2 °F 55.4 °F 50% 29.95 in 6.2 mi NW 11.5 mph - N/A   Partly Cloudy
4:20 PM 73.4 °F 57.2 °F 57% 29.95 in 6.2 mi NW 9.2 mph - N/A   Partly Cloudy
4:50 PM 73.4 °F 59.0 °F 61% 29.95 in 6.2 mi NNW 9.2 mph - N/A   Partly Cloudy
5:00 PM 73 °F 58 °F 51% 29.97 in 6 mi North 8.9 mph - -   Scattered Clouds
5:20 PM 71.6 °F 59.0 °F 64% 29.95 in - North 8.1 mph - N/A   Clear
5:50 PM 71.6 °F 59.0 °F 64% 29.95 in - North 8.1 mph - N/A   Clear
6:20 PM 71.6 °F 59.0 °F 64% 29.95 in - North 5.8 mph - N/A   Clear
6:50 PM 71.6 °F 59.0 °F 64% 29.98 in - NNE 4.6 mph - N/A   Clear
7:20 PM 69.8 °F 59.0 °F 68% 29.98 in - NNE 4.6 mph - N/A   Clear
7:50 PM 69.8 °F 57.2 °F 64% 29.98 in - Variable 2.3 mph - N/A   Clear
8:00 PM 69 °F 58 °F 58% 29.98 in 6 mi NNE 4.5 mph - -   Clear
8:20 PM 69.8 °F 57.2 °F 64% 29.98 in - Variable 2.3 mph - N/A   Clear
8:50 PM 68.0 °F 57.2 °F 68% 29.98 in - Variable 2.3 mph - N/A   Clear
9:20 PM 68.0 °F 57.2 °F 68% 29.98 in - Variable 2.3 mph - N/A   Clear
9:50 PM 66.2 °F 57.2 °F 73% 29.98 in - Variable 2.3 mph - N/A   Clear
10:20 PM 66.2 °F 57.2 °F 73% 29.95 in - Variable 3.5 mph - N/A   Clear
10:50 PM 64.4 °F 57.2 °F 77% 29.95 in - Variable 2.3 mph - N/A   Clear
11:20 PM 64.4 °F 57.2 °F 77% 29.95 in - Variable 2.3 mph - N/A   Clear
11:50 PM 62.6 °F 57.2 °F 82% 29.95 in - Variable 1.2 mph - N/A   Clear